| time (UTC) | temp C | wind direction | speed KPH | gust KPH | rain 1hr cm | rain 24hr cm | rain mn cm | humidity % | barometer mb |
| 20260504160329 | 18 | 195 | 11.3 | 25.7 | 0.00 | 0.00 | 0.00 | 24 | 1009.1 |
| 20260504160316 | 18 | 209 | 8.0 | 19.3 | 0.00 | 0.00 | 0.00 | 39 | 1007.7 |
| 20260504150411 | 17 | 212 | 11.3 | 32.2 | 0.00 | 0.00 | 0.00 | 26 | 1009.7 |
| 20260504150332 | 17 | 223 | 4.8 | 24.1 | 0.00 | 0.00 | 0.00 | 41 | 1008.0 |
| 20260504140342 | 15 | 199 | 8.0 | 22.5 | 0.00 | 0.00 | 0.00 | 30 | 1009.8 |
| 20260504140317 | 15 | 173 | 8.0 | 19.3 | 0.00 | 0.00 | 0.00 | 50 | 1008.1 |
| 20260504130418 | 12 | 105 | 3.2 | 17.7 | 0.00 | 0.00 | 0.00 | 40 | 1010.5 |
| 20260504130408 | 12 | 164 | 6.4 | 17.7 | 0.00 | 0.00 | 0.00 | 54 | 1008.9 |
| 20260504130336 | 12 | 105 | 3.2 | 17.7 | 0.00 | 0.00 | 0.00 | 40 | 1010.5 |
| 20260504110410 | 7 | 110 | 6.4 | 12.9 | 0.00 | 0.00 | 0.00 | 49 | 1011.0 |
| 20260504110334 | 8 | 156 | 4.8 | 9.7 | 0.00 | 0.00 | 0.00 | 68 | 1009.6 |
| 20260504100337 | 5 | 266 | 0.0 | 1.6 | 0.00 | 0.00 | 0.00 | 78 | 1009.3 |
| 20260504100327 | 6 | 95 | 3.2 | 4.8 | 0.00 | 0.00 | 0.00 | 51 | 1010.7 |
| 20260504081841 | 7 | 207 | 0.0 | 1.6 | 0.00 | 0.00 | 0.00 | 71 | 1009.4 |
| 20260504081832 | 7 | 97 | 4.8 | 12.9 | 0.00 | 0.00 | 0.00 | 47 | 1010.8 |
| 20260504080353 | 7 | 120 | 3.2 | 8.0 | 0.00 | 0.00 | 0.00 | 48 | 1010.7 |
| 20260504080345 | 7 | 156 | 9.7 | 12.9 | 0.00 | 0.00 | 0.00 | 69 | 1009.2 |
| 20260504070401 | 7 | 212 | 0.0 | 1.6 | 0.00 | 0.00 | 0.00 | 69 | 1009.4 |
| 20260504070359 | 7 | 158 | 1.6 | 9.7 | 0.00 | 0.00 | 0.00 | 46 | 1010.6 |
| 20260504050426 | 5 | 92 | 0.0 | 0.0 | 0.00 | 0.00 | 0.00 | 55 | 1011.2 |
| 20260504050328 | 5 | 294 | 0.0 | 3.2 | 0.00 | 0.00 | 0.00 | 71 | 1009.5 |
| 20260504044829 | 5 | 280 | 0.0 | 1.6 | 0.00 | 0.00 | 0.00 | 69 | 1009.5 |
| 20260504044826 | 5 | 92 | 0.0 | 0.0 | 0.00 | 0.00 | 0.00 | 53 | 1011.1 |
| 20260504043336 | 4 | 92 | 1.6 | 4.8 | 0.00 | 0.00 | 0.00 | 51 | 1011.2 |
| 20260504043329 | 5 | 280 | 0.0 | 3.2 | 0.00 | 0.00 | 0.00 | 72 | 1009.4 |
| 20260504041931 | 4 | 92 | 0.0 | 4.8 | 0.00 | 0.00 | 0.00 | 54 | 1011.2 |
| 20260504041907 | 3 | 166 | 1.6 | 4.8 | 0.00 | 0.00 | 0.00 | 70 | 1009.5 |
| 20260504040343 | 5 | 114 | 3.2 | 6.4 | 0.00 | 0.00 | 0.00 | 56 | 1010.8 |
| 20260504040327 | 3 | 306 | 0.0 | 1.6 | 0.00 | 0.00 | 0.00 | 77 | 1009.4 |
| 20260504034845 | 5 | 25 | 3.2 | 4.8 | 0.00 | 0.00 | 0.00 | 54 | 1010.9 |
| 20260504034813 | 2 | 306 | 1.6 | 3.2 | 0.00 | 0.00 | 0.00 | 78 | 1009.5 |
| 20260504033407 | 2 | 306 | 0.0 | 1.6 | 0.00 | 0.00 | 0.00 | 79 | 1009.4 |
| 20260504033336 | 6 | 78 | 4.8 | 6.4 | 0.00 | 0.00 | 0.00 | 41 | 1010.7 |
| 20260504031901 | 7 | 116 | 1.6 | 4.8 | 0.00 | 0.00 | 0.00 | 38 | 1010.8 |
| 20260504031831 | 2 | 306 | 0.0 | 0.0 | 0.00 | 0.00 | 0.00 | 82 | 1009.2 |
| 20260504030329 | 1 | 306 | 0.0 | 0.0 | 0.00 | 0.00 | 0.00 | 83 | 1009.2 |
| 20260504030326 | 6 | 116 | 0.0 | 3.2 | 0.00 | 0.00 | 0.00 | 38 | 1010.9 |
| 20260504024858 | 1 | 306 | 0.0 | 3.2 | 0.00 | 0.00 | 0.00 | 84 | 1009.2 |
| 20260504024848 | 6 | 116 | 1.6 | 3.2 | 0.00 | 0.00 | 0.00 | 39 | 1011.0 |
| 20260504023409 | 6 | 125 | 1.6 | 4.8 | 0.00 | 0.00 | 0.00 | 41 | 1011.0 |
| 20260504023315 | 2 | 306 | 0.0 | 1.6 | 0.00 | 0.00 | 0.00 | 85 | 1009.2 |
| 20260504021827 | 6 | 76 | 3.2 | 4.8 | 0.00 | 0.00 | 0.00 | 43 | 1011.0 |
| 20260504021819 | 2 | 306 | 0.0 | 1.6 | 0.00 | 0.00 | 0.00 | 85 | 1009.8 |
| 20260504020413 | 2 | 306 | 0.0 | 1.6 | 0.00 | 0.00 | 0.00 | 83 | 1009.2 |
| 20260504020332 | 5 | 70 | 3.2 | 4.8 | 0.00 | 0.00 | 0.00 | 45 | 1010.8 |
| 20260504014933 | 2 | 306 | 0.0 | 0.0 | 0.00 | 0.00 | 0.00 | 82 | 1009.1 |
| 20260504014835 | 6 | 95 | 1.6 | 8.0 | 0.00 | 0.00 | 0.00 | 44 | 1010.6 |
| 20260504013401 | 6 | 87 | 4.8 | 6.4 | 0.00 | 0.00 | 0.00 | 39 | 1010.4 |
| 20260504013335 | 2 | 306 | 0.0 | 0.0 | 0.00 | 0.00 | 0.00 | 79 | 1008.9 |
| 20260504011915 | 6 | 105 | 3.2 | 4.8 | 0.00 | 0.00 | 0.00 | 38 | 1010.4 |
| 20260504011833 | 6 | 105 | 3.2 | 4.8 | 0.00 | 0.00 | 0.00 | 38 | 1010.4 |
| 20260504011818 | 3 | 306 | 0.0 | 0.0 | 0.00 | 0.00 | 0.00 | 77 | 1008.8 |
| 20260504010341 | 3 | 306 | 0.0 | 0.0 | 0.00 | 0.00 | 0.00 | 71 | 1008.6 |
| 20260504010335 | 6 | 99 | 3.2 | 4.8 | 0.00 | 0.00 | 0.00 | 39 | 1010.1 |
| 20260504004843 | 3 | 306 | 0.0 | 0.0 | 0.00 | 0.00 | 0.00 | 73 | 1008.4 |
| 20260504004841 | 6 | 87 | 4.8 | 6.4 | 0.00 | 0.00 | 0.00 | 39 | 1009.9 |
| 20260504003356 | 4 | 306 | 0.0 | 0.0 | 0.00 | 0.00 | 0.00 | 70 | 1008.2 |
| 20260504003345 | 7 | 81 | 4.8 | 6.4 | 0.00 | 0.00 | 0.00 | 40 | 1009.7 |
| 20260504001850 | 7 | 61 | 3.2 | 6.4 | 0.00 | 0.00 | 0.00 | 37 | 1009.6 |
| 20260504001818 | 5 | 306 | 0.0 | 1.6 | 0.00 | 0.00 | 0.00 | 67 | 1008.0 |
| 20260504000358 | 9 | 58 | 3.2 | 4.8 | 0.00 | 0.00 | 0.00 | 33 | 1009.4 |
| 20260504000346 | 6 | 306 | 0.0 | 3.2 | 0.00 | 0.00 | 0.00 | 64 | 1007.9 |
| 20260503234830 | 10 | 289 | 0.0 | 3.2 | 0.00 | 0.00 | 0.00 | 28 | 1009.3 |
| 20260503234828 | 7 | 306 | 1.6 | 3.2 | 0.00 | 0.00 | 0.00 | 60 | 1007.8 |
| 20260503233348 | 10 | 263 | 1.6 | 6.4 | 0.00 | 0.00 | 0.00 | 27 | 1009.2 |
| 20260503233339 | 8 | 306 | 0.0 | 3.2 | 0.00 | 0.00 | 0.00 | 59 | 1007.7 |
| 20260503231921 | 10 | 308 | 4.8 | 11.3 | 0.00 | 0.00 | 0.00 | 28 | 1009.1 |
| 20260503231842 | 10 | 351 | 0.0 | 3.2 | 0.00 | 0.00 | 0.00 | 50 | 1007.6 |
| 20260503230456 | 10 | 353 | 1.6 | 17.7 | 0.00 | 0.00 | 0.00 | 29 | 1009.1 |
| 20260503230413 | 10 | 353 | 1.6 | 17.7 | 0.00 | 0.00 | 0.00 | 29 | 1009.1 |
| 20260503230343 | 10 | 341 | 1.6 | 9.7 | 0.00 | 0.00 | 0.00 | 45 | 1007.5 |
| 20260503224842 | 10 | 335 | 3.2 | 12.9 | 0.00 | 0.00 | 0.00 | 44 | 1007.6 |
| 20260503224828 | 11 | 328 | 9.7 | 19.3 | 0.00 | 0.00 | 0.00 | 26 | 1009.2 |
| 20260503223412 | 10 | 22 | 4.8 | 8.0 | 0.00 | 0.00 | 0.00 | 45 | 1007.5 |
| 20260503223400 | 10 | 280 | 6.4 | 27.4 | 0.00 | 0.00 | 0.00 | 26 | 1009.1 |
| 20260503221845 | 11 | 291 | 14.5 | 22.5 | 0.00 | 0.00 | 0.00 | 25 | 1009.1 |
| 20260503221810 | 10 | 311 | 6.4 | 12.9 | 0.00 | 0.00 | 0.00 | 44 | 1007.5 |
| 20260503220416 | 10 | 349 | 4.8 | 14.5 | 0.00 | 0.00 | 0.00 | 43 | 1007.4 |
| 20260503220403 | 10 | 306 | 6.4 | 16.1 | 0.00 | 0.00 | 0.00 | 30 | 1009.0 |
| 20260503214858 | 10 | 295 | 11.3 | 25.7 | 0.00 | 0.00 | 0.00 | 27 | 1009.1 |
| 20260503214838 | 10 | 275 | 3.2 | 6.4 | 0.00 | 0.00 | 0.00 | 46 | 1007.6 |
| 20260503213421 | 10 | 212 | 6.4 | 20.9 | 0.00 | 0.00 | 0.00 | 28 | 1008.9 |
| 20260503213349 | 10 | 5 | 3.2 | 9.7 | 0.00 | 0.00 | 0.00 | 44 | 1007.4 |
| 20260503211907 | 10 | 300 | 9.7 | 30.6 | 0.00 | 0.00 | 0.00 | 31 | 1008.9 |
| 20260503211821 | 10 | 317 | 6.4 | 14.5 | 0.00 | 0.00 | 0.00 | 43 | 1007.3 |
| 20260503210350 | 10 | 268 | 11.3 | 25.7 | 0.00 | 0.00 | 0.00 | 28 | 1008.7 |
| 20260503210329 | 10 | 30 | 4.8 | 16.1 | 0.00 | 0.00 | 0.00 | 44 | 1007.1 |
| 20260503204851 | 10 | 215 | 12.9 | 25.7 | 0.00 | 0.00 | 0.00 | 27 | 1008.7 |
| 20260503204828 | 10 | 308 | 3.2 | 16.1 | 0.00 | 0.00 | 0.00 | 44 | 1007.0 |
| 20260503203427 | 10 | 357 | 8.0 | 24.1 | 0.00 | 0.00 | 0.00 | 31 | 1008.5 |
| 20260503203401 | 10 | 318 | 4.8 | 16.1 | 0.00 | 0.00 | 0.00 | 44 | 1007.1 |
| 20260503201950 | 9 | 325 | 12.9 | 30.6 | 0.00 | 0.00 | 0.00 | 30 | 1008.8 |
| 20260503201847 | 9 | 325 | 12.9 | 30.6 | 0.00 | 0.00 | 0.00 | 30 | 1008.8 |
| 20260503201837 | 9 | 327 | 4.8 | 17.7 | 0.00 | 0.00 | 0.00 | 45 | 1007.2 |
| 20260503200436 | 10 | 232 | 12.9 | 25.7 | 0.00 | 0.00 | 0.00 | 28 | 1008.8 |
| 20260503200340 | 10 | 344 | 6.4 | 22.5 | 0.00 | 0.00 | 0.00 | 46 | 1007.2 |
| 20260503194850 | 10 | 302 | 3.2 | 14.5 | 0.00 | 0.00 | 0.00 | 46 | 1007.3 |
| 20260503194832 | 9 | 345 | 12.9 | 25.7 | 0.00 | 0.00 | 0.00 | 31 | 1009.0 |
| 20260503193357 | 10 | 25 | 4.8 | 16.1 | 0.00 | 0.00 | 0.00 | 46 | 1007.2 |
| 20260503193345 | 9 | 318 | 11.3 | 29.0 | 0.00 | 0.00 | 0.00 | 30 | 1009.0 |
| 20260503191845 | 9 | 258 | 19.3 | 35.4 | 0.00 | 0.00 | 0.00 | 29 | 1008.8 |
| 20260503191841 | 9 | 286 | 4.8 | 20.9 | 0.00 | 0.00 | 0.00 | 46 | 1007.2 |
| 20260503190347 | 9 | 305 | 8.0 | 16.1 | 0.00 | 0.00 | 0.00 | 46 | 1007.3 |
| 20260503190331 | 9 | 248 | 8.0 | 25.7 | 0.00 | 0.00 | 0.00 | 32 | 1008.9 |
| 20260503184846 | 9 | 325 | 16.1 | 33.8 | 0.00 | 0.00 | 0.00 | 30 | 1008.9 |
| 20260503184835 | 9 | 315 | 8.0 | 19.3 | 0.00 | 0.00 | 0.00 | 45 | 1007.2 |
| 20260503183443 | 10 | 321 | 11.3 | 32.2 | 0.00 | 0.00 | 0.00 | 30 | 1008.9 |
| 20260503183401 | 10 | 321 | 11.3 | 32.2 | 0.00 | 0.00 | 0.00 | 30 | 1008.9 |
| 20260503183316 | 10 | 330 | 6.4 | 25.7 | 0.00 | 0.00 | 0.00 | 46 | 1007.3 |
| 20260503181908 | 10 | 353 | 14.5 | 35.4 | 0.00 | 0.00 | 0.00 | 29 | 1008.9 |
| 20260503181820 | 10 | 329 | 8.0 | 24.1 | 0.00 | 0.00 | 0.00 | 45 | 1007.4 |
| 20260503180343 | 10 | 344 | 12.9 | 33.8 | 0.00 | 0.00 | 0.00 | 29 | 1008.9 |
| 20260503180324 | 10 | 311 | 9.7 | 19.3 | 0.00 | 0.00 | 0.00 | 45 | 1007.4 |
| 20260503174826 | 8 | 291 | 16.1 | 32.2 | 0.00 | 0.00 | 0.00 | 32 | 1008.9 |
| 20260503174824 | 9 | 360 | 4.8 | 24.1 | 0.00 | 0.00 | 0.00 | 47 | 1007.3 |
| 20260503173358 | 9 | 271 | 6.4 | 17.7 | 0.00 | 0.00 | 0.00 | 48 | 1007.1 |
| 20260503173333 | 9 | 357 | 20.9 | 38.6 | 0.00 | 0.00 | 0.00 | 32 | 1008.8 |
| 20260503171917 | 9 | 330 | 16.1 | 33.8 | 0.00 | 0.00 | 0.00 | 31 | 1008.8 |
| 20260503171815 | 9 | 306 | 6.4 | 17.7 | 0.00 | 0.00 | 0.00 | 49 | 1007.1 |
| 20260503170434 | 9 | 295 | 16.1 | 27.4 | 0.00 | 0.00 | 0.00 | 34 | 1008.7 |
| 20260503170323 | 9 | 21 | 6.4 | 17.7 | 0.00 | 0.00 | 0.00 | 50 | 1007.0 |